CAPE
3099 2948 2980 2888 2969 2850 2846 2921 2826 2450 2363 2198 2532 2531 2606 2526 2525 2792 2553 2283 2278 2168 1979 1743 1744 1670 1598 1499 1368 1269 1095 800 675 580 490 469 446 392 375 56 41 42 26 6 0 0 4 8 13 0 0 0 0 0 0 0 0 0 0 0 0 0 0 0 0 0 0 0 0 0 0 0 0 0 0 0 0 0 0 0 0 0 0 0 0
3221 2997 2840 2782 2826 2816 2888 3078 3036 2481 2299 2455 2452 2466 2561 2534 2523 2509 2738 2535 2250 2080 1926 1751 1631 1568 1339 1218 1108 983 885 827 687 605 463 409 450 409 343 18 1 0 0 0 0 0 0 0 0 0 0 0 0 0 0 0 0 0 0 0 0 0 0 0 0 0 0 0 0 0 0 0 0 0 0 0 0 0 0 0 0 0 0 0 0
3173 2962 2881 2954 2854 2767 2964 3088 2937 2668 2616 2515 2455 2244 2403 2415 2217 2458 2294 2424 2128 1983 1871 1723 1624 1560 1404 1301 1075 966 852 727 658 546 474 418 412 406 97 1 0 0 0 0 0 0 0 0 0 0 0 0 0 0 0 0 0 0 0 0 0 0 0 0 0 0 0 0 0 0 0 0 0 0 0 0 0 0 0 0 0 0 0 0 0
3093 2961 2894 2895 2741 2767 2845 3023 2876 2565 2658 2487 2440 2494 2139 2326 2100 2340 2240 2344 2015 1934 1824 1738 1635 1582 1268 1180 1083 965 882 771 628 556 459 424 390 333 6 0 0 0 0 0 0 0 0 0 0 0 0 0 0 0 0 0 0 0 0 0 0 0 0 0 0 0 0 0 0 0 0 0 0 0 0 0 0 0 0 0 0 0 0 0 0
3094 2880 2651 2762 2742 2770 2857 2897 2918 2826 2720 2387 2458 2471 2385 2405 1979 1894 2004 1968 1969 1819 1649 1580 1493 1432 1309 1272 1087 913 915 783 628 549 440 392 368 166 0 0 0 0 0 0 0 0 0 0 0 0 0 0 0 0 0 0 0 0 0 0 0 0 0 0 0 0 0 0 0 0 0 0 0 0 0 0 0 0 0 0 0 0 0 0 0
3181 2910 2662 2672 2665 2691 2879 3026 2969 2825 2711 2247 2442 2409 2407 2299 2193 2006 1759 1688 1598 1577 1572 1393 1242 1185 1330 1286 1161 1024 877 736 642 505 453 438 345 2 0 0 0 0 0 0 0 0 0 0 0 0 0 0 0 0 0 0 0 0 0 0 0 0 0 0 0 0 2 3 0 0 0 0 0 0 0 0 0 0 0 0 0 0 0 0 0
3091 2746 2635 2654 2601 2607 2654 2970 2808 2715 2596 2480 2380 2246 2262 2312 2168 1824 1680 1799 1529 1497 1421 1280 1087 1167 1369 1296 1178 1128 856 631 558 417 401 334 170 0 0 0 0 0 0 0 0 0 0 0 0 0 0 0 0 0 0 0 0 0 0 0 0 4 16 16 12 18 17 15 4 0 0 0 0 0 0 0 0 0 0 0 0 0 0 0 0
2836 2665 2590 2368 2579 2559 2583 2732 2852 2633 2564 2416 2136 1929 2137 2121 2100 1764 1625 1651 1684 1376 1303 1211 1206 1242 1404 1261 1162 1108 988 643 438 350 144 47 0 0 0 0 0 0 0 0 0 0 0 0 0 0 0 0 0 0 0 0 0 0 0 0 8 19 29 38 28 25 28 13 1 0 0 0 0 0 0 0 0 0 0 0 0 0 0 0 0
2920 2612 2520 2583 2623 2612 2568 2756 2603 2544 2315 2239 2106 1959 1828 1988 1797 1666 1714 1571 1424 1310 1195 1066 1051 1327 1427 1293 1194 1157 1056 767 453 356 278 14 0 0 0 0 0 0 0 0 0 0 0 0 0 0 0 0 0 0 0 0 0 0 2 16 21 8 18 33 30 27 21 6 0 0 0 0 0 0 0 0 0 0 0 0 0 0 0 0 0
2739 2593 2499 2587 2657 2506 2548 2609 2387 2391 2289 1963 1849 1909 1857 1813 1686 1674 1735 1619 1482 1416 1150 949 1089 1387 1448 1288 1234 1160 1096 887 538 416 379 347 44 0 0 0 0 0 0 0 0 0 0 0 0 0 0 0 0 0 0 0 0 1 17 55 26 13 30 34 29 21 9 0 0 0 0 0 0 0 0 0 0 0 0 0 0 0 0 0 0
2701 2534 2535 2490 2489 2503 2466 2406 2226 2186 1844 1728 1758 1744 1945 1878 1737 1753 1736 1657 1513 1440 1276 1033 1120 1442 1410 1299 1161 1054 994 925 664 458 454 370 0 0 0 0 0 0 0 0 0 0 0 0 0 0 0 0 0 0 0 0 0 0 0 0 36 35 36 24 10 2 0 0 0 0 0 0 0 0 0 0 0 0 0 0 0 0 0 0 0
2764 2687 2628 2596 2395 2371 2399 2295 2128 2057 2012 1732 1799 1816 1878 1884 1870 1748 1724 1730 1556 1511 1412 1126 1343 1500 1402 1240 1146 983 894 981 835 554 456 351 0 0 0 0 0 0 0 0 0 0 0 0 0 0 0 0 0 0 0 0 0 0 0 7 41 41 20 12 5 0 0 0 0 0 0 0 0 0 0 0 0 0 0 0 0 0 0 0 0
2741 2572 2529 2388 2301 2564 2305 2140 2042 1972 1824 1716 1722 1768 1816 1928 1918 1824 1713 1728 1647 1533 1559 1220 1505 1524 1390 1184 1132 918 758 721 851 651 463 337 0 0 0 0 0 0 0 0 0 0 0 0 0 0 0 0 0 0 0 0 0 0 0 54 34 10 9 10 3 0 0 0 0 0 0 0 0 0 0 0 0 0 0 0 0 0 0 0 0
2683 2537 2444 2442 2400 2362 2078 1844 1714 1736 1601 1622 1737 1732 1731 1923 2000 1792 1663 1697 1649 1555 1433 1290 1517 1565 1376 1195 1159 875 692 590 629 626 454 322 290 0 0 0 0 0 0 0 0 0 0 0 0 0 0 0 0 0 0 0 0 4 25 20 1 0 0 0 0 0 0 0 0 0 0 0 0 0 0 0 0 0 0 0 0 0 0 0 0
2508 2399 2387 2424 2287 2275 2009 1790 1768 1691 1557 1602 1618 1698 1715 1819 1862 1622 1554 1494 1607 1592 1364 1322 1536 1505 1340 1205 1081 833 662 520 569 565 432 312 223 208 266 60 0 0 0 0 0 0 0 0 0 0 0 0 0 0 0 0 13 26 25 9 0 0 0 0 0 0 0 0 0 0 0 0 0 0 0 0 0 0 0 0 0 0 0 0 0
2417 2472 2458 2424 2387 2094 2077 2073 1850 1621 1529 1449 1526 1664 1662 1780 1626 1474 1513 1347 1446 1516 1349 1198 1400 1356 1354 1224 891 898 734 521 574 568 404 245 239 262 237 254 117 0 0 0 0 0 0 0 0 0 0 0 0 0 0 6 22 24 12 0 0 0 0 0 0 0 4 28 0 0 0 1 0 1 1 0 0 0 0 0 0 0 0 0 0
2346 2383 2150 2386 2254 1980 2114 2157 1656 1582 1510 1529 1615 1616 1602 1609 1481 1424 1466 1154 977 1472 1449 1268 1275 1172 1213 1172 861 946 916 686 566 552 410 288 279 288 290 266 243 202 154 43 0 0 0 0 0 0 0 0 0 0 0 0 23 26 5 0 0 0 0 0 0 0 0 0 0 0 0 0 0 0 0 0 0 0 0 0 0 0 0 0 0
2194 2271 2319 2384 2340 2062 2012 1811 1581 1572 1572 1576 1626 1618 1562 1496 1444 1427 1382 1062 849 1020 1404 1336 1296 1166 1134 1048 1055 1016 1047 892 683 525 398 327 331 333 327 300 297 247 187 158 0 0 0 0 0 0 0 0 0 0 0 0 37 33 20 4 0 0 0 0 0 0 0 0 0 0 0 0 0 0 0 0 0 0 0 0 0 0 0 0 0
2219 2189 2344 2478 2353 2079 1797 1667 1592 1582 1608 1673 1697 1649 1535 1496 1420 1437 1269 884 866 819 801 906 993 1201 1204 1158 933 917 984 921 752 598 479 412 392 375 364 334 310 264 209 176 0 0 0 0 0 0 0 0 0 0 0 17 33 29 23 0 0 0 0 0 0 0 0 0 0 0 0 0 0 0 0 0 0 0 0 0 0 0 0 0 0
2154 2250 2358 2452 2317 2149 1754 1652 1584 1570 1661 1742 1722 1653 1554 1528 1484 1401 1106 844 910 1049 876 861 1030 1130 1192 1216 1025 734 736 740 719 642 561 511 459 438 414 383 328 279 222 185 16 0 0 0 0 0 0 0 0 0 6 40 28 35 10 0 0 0 0 0 0 0 0 0 0 0 0 0 0 0 0 0 0 0 0 0 0 0 0 0 0
2137 2411 2372 2284 2205 2029 1753 1630 1656 1690 1745 1784 1694 1590 1530 1520 1405 1308 961 712 892 1067 873 685 984 1163 1250 1210 1114 865 707 555 585 556 586 577 537 491 455 418 340 250 236 203 76 55 29 4 0 0 0 0 0 0 29 17 39 10 0 0 0 0 0 0 0 0 0 0 0 0 0 0 0 0 0 0 0 0 0 0 0 0 0 0 0
2372 2278 2304 2180 2004 1895 1723 1730 1747 1764 1774 1701 1654 1582 1518 1422 1371 1289 939 810 824 1107 1192 824 830 1104 1332 1285 1184 985 874 722 551 512 524 548 544 508 495 469 363 255 241 232 164 0 78 36 41 35 13 0 0 0 27 20 13 0 0 0 0 0 0 0 0 0 0 0 0 0 0 0 1 1 0 0 0 0 0 0 0 0 0 0 0
2215 2216 1936 2110 2174 2152 2004 1811 1816 1789 1720 1663 1580 1505 1451 1453 1425 1222 1077 839 776 893 901 579 748 1031 1118 1224 1231 1088 933 912 637 388 395 413 452 473 508 456 379 289 221 214 148 15 0 3 34 11 29 13 34 10 22 24 1 0 0 0 0 0 0 0 0 0 0 0 0 0 0 0 0 0 0 0 0 0 0 0 0 0 0 0 0
2120 2183 2139 2164 2198 2189 2164 1842 1770 1729 1658 1587 1517 1472 1436 1416 1345 1184 950 902 854 907 963 716 759 919 1062 1037 976 1066 960 692 538 431 415 366 381 402 421 401 351 300 255 210 127 56 9 1 0 0 45 51 47 42 39 6 0 0 0 0 0 0 0 0 0 0 0 0 0 0 0 0 0 0 0 0 0 0 0 0 0 0 0 0 0
2223 2267 2251 2245 2280 2238 2189 1947 1967 1975 1901 1524 1507 1495 1660 1344 1284 1217 985 789 736 866 907 843 731 784 984 1140 971 821 956 875 653 548 533 436 319 282 325 376 347 280 225 178 100 32 0 0 0 0 17 42 47 49 1 0 0 0 0 0 0 0 0 0 0 0 0 0 0 0 0 0 0 0 0 0 0 0 0 0 0 0 0 0 0
2180 2294 2123 2221 2332 2289 2204 2008 1832 2010 1971 1550 1472 1442 1398 1340 1284 1237 1041 802 728 775 848 725 639 734 925 1058 1023 837 787 928 732 649 635 401 266 355 365 374 328 257 208 190 128 0 0 0 0 24 0 0 0 0 0 0 0 0 0 0 0 0 0 0 0 0 0 0 0 0 0 0 0 0 0 0 0 0 0 0 0 0 0 0 0
2144 2195 2027 2200 2138 2025 2141 2141 1911 1786 1707 1587 1488 1392 1367 1344 1279 1237 1099 892 818 788 727 752 763 728 735 1116 1069 837 780 849 785 687 508 283 306 340 352 324 262 235 213 109 37 0 0 0 0 0 0 0 0 0 0 0 0 0 0 0 0 0 1 0 0 0 0 0 0 0 0 0 0 0 0 0 0 0 0 0 0 0 0 0 0
1817 1793 1935 1735 1640 1706 1849 1666 1579 1544 1557 1524 1483 1411 1370 1326 1271 1250 1211 1008 803 830 880 852 808 794 817 782 840 875 932 913 826 690 424 386 361 344 291 254 266 228 133 92 89 83 61 19 0 0 0 0 0 0 0 0 0 0 0 0 0 0 0 0 0 0 0 0 0 0 0 0 0 0 0 0 0 1 1 0 0 0 0 0 0
1529 1632 1604 1736 1487 1425 1496 1448 1382 1310 1317 1375 1445 1417 1358 1254 1204 1218 1170 991 836 805 848 902 974 913 830 750 691 582 821 884 852 716 499 398 394 382 178 245 253 164 122 106 110 106 44 0 0 0 0 0 0 0 0 0 0 0 0 0 0 0 0 0 0 0 0 0 0 0 0 0 1 0 0 0 0 0 0 0 0 0 0 0 0
1404 1596 1730 1636 1493 1430 1431 1446 1398 1342 1284 1298 1326 1264 1168 1198 1184 1151 1159 1051 900 789 759 817 879 863 886 559 162 198 551 784 663 544 532 420 326 153 89 165 193 127 95 77 0 0 0 0 0 0 0 0 0 0 0 0 0 0 0 0 0 0 0 0 0 0 0 0 0 0 0 0 0 1 0 0 0 0 0 0 0 0 0 0 0
1174 1183 1207 1362 1374 1288 1357 1310 1332 1409 1444 1470 1406 1359 1420 1442 1209 1122 996 894 877 914 909 801 768 768 657 622 485 292 301 483 524 509 446 264 60 99 194 225 171 148 114 8 0 0 0 0 0 0 0 0 0 0 0 0 0 0 0 0 0 0 0 0 0 0 0 0 0 0 0 0 2 0 0 0 0 0 0 0 0 0 0 0 0
961 1037 1085 1077 1100 1162 1207 1238 1281 1298 1268 1293 1346 1378 1376 1378 1324 1125 973 902 878 852 857 782 703 495 354 107 44 19 137 255 287 341 240 96 82 202 173 156 159 150 107 78 23 82 14 0 0 0 0 0 0 0 0 0 0 0 0 0 0 0 0 0 0 0 0 0 0 0 0 0 0 0 0 0 0 0 0 0 0 0 1 0 0
608 615 540 586 638 688 736 800 889 996 1084 1168 1128 1090 1113 1155 1180 1133 829 702 706 733 721 570 491 425 126 157 266 34 195 372 319 287 68 122 169 147 118 108 114 93 92 104 107 0 0 0 0 0 0 0 0 0 0 0 0 0 0 0 0 0 0 0 0 0 0 0 0 0 0 0 0 0 0 2 1 0 0 0 0 1 0 0 0
296 275 242 258 309 345 394 468 570 638 646 665 708 872 924 920 928 906 868 756 607 543 595 503 403 369 303 205 190 86 62 263 279 76 138 157 88 121 129 84 63 90 106 117 99 0 0 0 0 0 0 0 0 0 0 0 0 0 0 0 0 0 0 1 0 0 0 0 0 0 0 0 0 0 0 0 0 0 0 0 0 0 0 0 1
375 358 306 258 136 168 228 376 455 454 468 488 508 572 567 520 428 487 500 512 269 145 387 442 431 366 265 209 159 62 57 94 171 160 132 84 99 167 188 90 26 93 66 27 0 0 0 0 0 2 8 1 0 0 0 0 1 0 0 0 0 0 0 1 3 5 3 2 1 0 0 0 0 0 0 0 0 0 0 0 0 0 1 3 4
1 9 9 0 38 232 110 123 248 314 338 357 395 428 449 405 371 351 391 380 146 50 0 202 441 311 181 123 121 64 73 113 146 124 101 144 177 271 187 123 107 92 0 0 0 0 0 0 0 1 0 0 0 0 0 1 1 0 0 0 0 0 0 0 0 2 3 1 0 0 0 0 2 0 0 0 0 0 0 0 0 0 4 6 3
3 2 1 1 1 2 0 0 36 93 138 191 238 260 246 275 298 286 223 134 50 48 19 35 152 156 136 105 113 160 60 70 76 110 94 113 230 238 193 150 119 93 23 30 29 0 0 0 5 4 0 0 2 1 0 0 0 0 0 0 0 0 0 0 0 0 0 0 0 0 0 0 0 0 0 0 0 0 0 0 0 0 0 2 0
23 0 1 0 3 1 1 1 0 0 0 0 101 199 202 169 132 28 1 52 18 12 0 0 2 10 40 77 40 18 38 67 83 85 234 225 204 192 198 174 114 70 0 30 0 0 0 83 4 6 4 4 3 9 1 2 1 1 2 0 0 0 0 0 0 0 0 0 0 0 0 0 0 0 0 0 0 0 0 0 0 0 0 1 0
0 0 0 0 0 0 7 24 37 25 25 30 30 87 83 74 2 42 26 27 5 0 0 0 0 21 102 63 35 40 50 69 224 288 302 298 299 265 202 158 96 136 85 91 10 0 0 6 12 6 1 10 7 7 5 0 0 1 0 0 0 0 0 0 0 0 0 0 0 0 0 0 0 0 0 0 0 0 0 0 0 0 0 0 0
0 0 0 0 1 1 1 21 39 53 66 96 118 119 89 78 85 54 13 0 0 1 2 2 10 26 27 40 28 65 81 185 113 181 259 274 287 258 191 77 36 34 26 4 12 12 3 2 0 0 0 0 0 0 0 0 0 0 0 0 0 0 0 0 0 0 0 0 0 0 0 0 0 0 0 0 0 0 0 0 0 0 0 0 2
1 0 0 0 0 0 0 2 3 11 26 46 77 109 103 37 46 18 2 2 32 40 3 32 78 68 41 50 60 24 36 20 101 140 167 183 172 164 108 167 148 102 22 18 18 28 4 0 0 0 0 0 0 0 0 0 1 1 1 0 0 0 0 0 0 0 0 0 0 0 0 0 0 0 0 0 0 0 0 0 0 0 0 0 2
3 1 0 1 1 0 0 3 38 52 29 39 64 85 44 31 14 5 8 5 20 15 7 5 19 43 49 32 14 19 10 28 50 60 70 43 164 40 16 50 53 55 44 23 12 0 0 9 0 0 0 0 0 0 1 8 0 0 0 1 0 0 0 0 0 0 1 1 0 0 0 0 0 0 0 0 0 2 3 1 0 0 0 0 0
1 2 2 1 0 1 0 3 1 0 4 2 1 3 9 8 2 20 17 16 7 13 23 23 26 24 20 16 14 8 1 1 20 26 40 29 96 128 124 131 12 23 7 13 1 0 2 1 0 0 0 0 0 0 0 0 0 1 0 0 0 0 0 0 0 1 4 3 1 0 0 0 0 0 0 0 0 2 2 0 0 0 0 0 0
1 0 1 1 1 0 4 7 4 0 0 0 0 0 1 1 10 10 14 6 15 12 34 40 30 17 2 7 10 0 0 0 0 24 68 62 65 57 57 58 30 21 0 0 16 4 1 3 0 0 0 0 4 0 0 0 0 0 0 0 0 0 0 0 0 0 0 0 0 0 0 0 0 0 0 0 1 2 0 0 0 0 0 0 0
6 9 4 2 1 1 1 4 41 17 0 0 1 0 2 3 9 29 40 36 26 15 22 24 5 8 12 9 15 7 5 3 10 29 8 25 59 77 82 80 93 30 22 14 22 13 3 1 0 0 0 0 7 0 0 0 0 3 2 0 0 0 0 0 3 0 0 0 0 0 0 0 0 0 0 1 3 0 0 0 0 0 0 0 0
5 5 14 10 2 3 12 1 39 59 50 34 25 26 16 19 24 22 20 10 12 10 2 3 4 5 7 13 6 2 0 0 0 8 4 1 7 27 14 49 18 40 25 24 25 28 2 0 0 0 1 1 0 0 0 0 0 0 0 0 0 0 0 0 0 0 0 0 0 0 0 0 0 0 0 0 0 0 0 0 0 0 0 0 0
6 1 1 6 8 4 6 7 7 2 5 8 11 20 10 7 18 18 12 8 9 6 10 7 6 6 9 6 2 0 0 0 0 0 0 6 9 10 10 14 19 13 16 20 14 3 0 0 0 0 0 0 0 0 0 0 0 0 0 0 0 0 0 0 0 0 0 0 0 0 0 0 0 0 0 0 0 0 0 0 0 0 0 0 0
0 0 2 2 10 12 10 12 8 6 3 1 0 4 13 17 13 7 8 2 2 13 14 13 13 16 20 19 5 12 10 8 6 3 0 0 0 0 0 0 0 1 2 2 2 2 1 1 0 0 0 0 0 0 0 0 0 0 0 0 0 0 0 0 0 0 0 0 0 0 0 0 0 0 0 0 0 0 0 0 0 0 0 0 0
0 0 0 2 9 13 16 20 15 3 1 0 0 1 2 3 3 4 3 7 8 7 12 8 4 4 1 0 0 0 0 0 0 1 2 4 7 11 8 0 0 1 1 0 0 0 0 0 0 0 2 1 1 0 0 0 0 0 0 0 0 0 1 1 0 0 0 0 0 0 0 0 0 0 0 0 0 0 0 0 0 0 0 0 0
0 3 12 14 5 4 3 6 20 20 11 11 8 3 2 10 1 4 3 2 1 3 7 6 7 6 5 5 3 1 0 0 0 0 0 4 0 0 3 15 9 3 2 2 1 0 1 2 2 1 1 1 1 0 0 2 0 0 0 1 2 2 6 8 3 2 0 0 0 0 0 0 0 0 0 0 0 0 0 0 0 0 0 0 0
0 1 2 3 7 9 2 1 3 6 14 17 8 4 9 8 5 5 6 8 4 4 7 12 13 10 10 6 3 1 2 2 0 0 0 0 0 0 2 6 7 8 4 2 0 0 1 0 1 7 6 0 1 0 1 1 0 0 0 0 0 1 2 4 2 0 0 0 0 0 0 0 0 0 0 0 0 0 0 0 0 0 0 0 0
Wind_Speed
29 28 28 23 21 16 17 19 17 19 24 28 31 33 32 31 31 33 32 27 27 28 28 28 28 26 24 22 21 21 22 23 23 22 21 20 20 20 21 nan nan nan nan nan nan nan nan nan nan nan nan nan nan nan nan nan nan nan nan nan nan nan nan nan nan nan nan nan nan nan nan nan nan nan nan nan nan nan nan nan nan nan nan nan nan
31 28 26 24 20 16 17 21 20 22 26 29 30 30 28 26 27 29 30 29 28 29 29 28 28 27 23 21 20 21 21 23 24 23 22 21 21 21 21 nan nan nan nan nan nan nan nan nan nan nan nan nan nan nan nan nan nan nan nan nan nan nan nan nan nan nan nan nan nan nan nan nan nan nan nan nan nan nan nan nan nan nan nan nan nan
31 30 28 29 22 17 20 21 20 23 28 29 28 26 24 24 25 27 27 29 28 29 28 28 28 27 23 21 20 20 21 22 23 23 22 21 22 22 nan nan nan nan nan nan nan nan nan nan nan nan nan nan nan nan nan nan nan nan nan nan nan nan nan nan nan nan nan nan nan nan nan nan nan nan nan nan nan nan nan nan nan nan nan nan nan
34 31 30 29 24 20 20 21 21 24 26 27 27 25 24 25 25 26 27 29 30 30 30 30 29 27 24 22 20 20 21 22 24 22 22 22 22 22 nan nan nan nan nan nan nan nan nan nan nan nan nan nan nan nan nan nan nan nan nan nan nan nan nan nan nan nan nan nan nan nan nan nan nan nan nan nan nan nan nan nan nan nan nan nan nan
37 33 30 29 26 21 21 21 21 23 24 27 29 28 27 27 26 27 28 28 30 31 32 30 29 27 25 23 20 20 22 23 23 23 22 22 22 22 nan nan nan nan nan nan nan nan nan nan nan nan nan nan nan nan nan nan nan nan nan nan nan nan nan nan nan nan nan nan nan nan nan nan nan nan nan nan nan nan nan nan nan nan nan nan nan
38 35 34 32 27 23 22 23 21 23 26 28 31 32 29 28 28 29 30 30 29 31 32 31 29 27 25 23 21 21 22 23 23 24 24 24 23 nan nan nan nan nan nan nan nan nan nan nan nan nan nan nan nan nan nan nan nan nan nan nan nan nan nan nan nan nan nan nan nan nan nan nan nan nan nan nan nan nan nan nan nan nan nan nan nan
40 38 36 33 29 26 24 24 23 25 29 31 33 34 33 30 29 30 31 31 30 29 32 32 29 26 24 23 21 20 21 22 23 24 24 25 25 nan nan nan nan nan nan nan nan nan nan nan nan nan nan nan nan nan nan nan nan nan nan nan nan nan nan nan nan nan nan nan nan nan nan nan nan nan nan nan nan nan nan nan nan nan nan nan nan
43 40 37 34 28 25 24 27 29 28 31 33 35 36 35 32 30 30 32 32 30 29 31 32 30 26 24 23 22 22 21 22 23 24 25 nan nan nan nan nan nan nan nan nan nan nan nan nan nan nan nan nan nan nan nan nan nan nan nan nan nan nan nan nan nan nan nan nan nan nan nan nan nan nan nan nan nan nan nan nan nan nan nan nan nan
43 40 38 33 27 26 29 33 32 31 33 35 37 38 35 34 32 31 31 32 31 30 31 32 31 27 26 25 24 24 23 23 23 24 25 nan nan nan nan nan nan nan nan nan nan nan nan nan nan nan nan nan nan nan nan nan nan nan nan nan nan nan nan nan nan nan nan nan nan nan nan nan nan nan nan nan nan nan nan nan nan nan nan nan nan
43 41 37 31 28 28 29 35 35 33 36 36 37 38 36 33 32 31 32 33 32 30 31 30 30 29 27 27 25 24 23 22 25 28 27 27 nan nan nan nan nan nan nan nan nan nan nan nan nan nan nan nan nan nan nan nan nan nan nan nan nan nan nan nan nan nan nan nan nan nan nan nan nan nan nan nan nan nan nan nan nan nan nan nan nan
41 39 35 33 32 32 32 37 36 35 35 37 40 38 35 34 33 32 32 34 32 30 30 30 30 29 28 27 26 24 24 25 33 31 31 30 nan nan nan nan nan nan nan nan nan nan nan nan nan nan nan nan nan nan nan nan nan nan nan nan nan nan nan nan nan nan nan nan nan nan nan nan nan nan nan nan nan nan nan nan nan nan nan nan nan
40 38 36 36 35 36 39 38 34 35 37 36 38 37 35 33 33 31 34 34 33 31 30 30 31 30 28 27 25 24 24 34 35 33 32 32 nan nan nan nan nan nan nan nan nan nan nan nan nan nan nan nan nan nan nan nan nan nan nan nan nan nan nan nan nan nan nan nan nan nan nan nan nan nan nan nan nan nan nan nan nan nan nan nan nan
39 39 38 37 34 35 38 36 36 38 38 39 39 37 33 32 32 32 34 35 33 31 29 30 32 32 30 27 25 26 25 36 36 35 34 33 nan nan nan nan nan nan nan nan nan nan nan nan nan nan nan nan nan nan nan nan nan nan nan nan nan nan nan nan nan nan nan nan nan nan nan nan nan nan nan nan nan nan nan nan nan nan nan nan nan
40 40 39 38 35 33 33 35 38 39 39 39 37 33 32 31 32 33 37 36 33 31 29 31 33 32 29 27 27 27 26 35 36 35 34 34 33 nan nan nan nan nan nan nan nan nan nan nan nan nan nan nan nan nan nan nan nan nan nan nan nan nan nan nan nan nan nan nan nan nan nan nan nan nan nan nan nan nan nan nan nan nan nan nan nan
41 40 40 39 37 37 35 35 39 41 40 39 35 33 34 33 34 36 36 34 32 30 29 31 32 31 30 29 28 27 29 37 35 35 35 35 34 29 29 nan nan nan nan nan nan nan nan nan nan nan nan nan nan nan nan nan nan nan nan nan nan nan nan nan nan nan nan nan nan nan nan nan nan nan nan nan nan nan nan nan nan nan nan nan nan
40 40 40 38 35 35 34 38 44 43 40 37 34 34 35 36 37 37 35 32 32 31 29 31 33 32 32 31 30 27 32 36 36 35 36 36 36 30 30 32 31 nan nan nan nan nan nan nan nan nan nan nan nan nan nan nan nan nan nan nan nan nan nan nan nan nan nan nan nan nan nan nan nan nan nan nan nan nan nan nan nan nan nan nan nan
39 40 38 36 35 37 37 43 45 43 40 37 35 35 36 39 36 36 33 32 32 30 29 32 33 33 34 33 31 29 34 33 36 37 38 38 36 31 32 33 33 33 33 nan nan nan nan nan nan nan nan nan nan nan nan nan nan nan nan nan nan nan nan nan nan nan nan nan nan nan nan nan nan nan nan nan nan nan nan nan nan nan nan nan nan
38 39 37 37 40 38 40 43 43 41 38 36 37 38 39 38 36 35 32 32 32 30 31 32 34 34 34 33 32 30 34 34 36 37 39 40 36 33 33 34 36 36 36 35 nan nan nan nan nan nan nan nan nan nan nan nan nan nan nan nan nan nan nan nan nan nan nan nan nan nan nan nan nan nan nan nan nan nan nan nan nan nan nan nan nan
37 37 36 36 39 39 39 40 40 38 36 37 38 41 41 40 36 35 33 33 32 32 32 33 35 36 34 33 35 33 35 36 36 39 39 39 35 31 34 35 38 38 39 39 nan nan nan nan nan nan nan nan nan nan nan nan nan nan nan nan nan nan nan nan nan nan nan nan nan nan nan nan nan nan nan nan nan nan nan nan nan nan nan nan nan
36 37 38 40 38 39 39 39 37 35 36 38 40 42 42 39 36 35 34 34 34 33 34 32 35 37 37 36 37 33 36 37 35 39 40 39 35 31 34 36 37 39 39 41 nan nan nan nan nan nan nan nan nan nan nan nan nan nan nan nan nan nan nan nan nan nan nan nan nan nan nan nan nan nan nan nan nan nan nan nan nan nan nan nan nan
39 40 39 40 39 39 38 37 36 36 38 40 42 41 40 37 36 37 36 35 35 35 35 33 34 35 39 38 38 36 38 40 39 40 39 38 35 28 34 35 37 39 40 41 nan nan nan nan nan nan nan nan nan nan nan nan nan nan nan nan nan nan nan nan nan nan nan nan nan nan nan nan nan nan nan nan nan nan nan nan nan nan nan nan nan
41 40 38 37 37 37 37 36 37 39 41 41 39 37 37 37 37 37 37 37 35 36 37 35 34 35 38 40 40 38 40 44 43 41 41 39 36 28 30 36 37 40 41 40 40 nan nan nan nan nan nan nan nan nan nan nan nan nan nan nan nan nan nan nan nan nan nan nan nan nan nan nan nan nan nan nan nan nan nan nan nan nan nan nan nan
39 38 38 37 37 36 37 37 37 37 35 35 37 36 35 35 36 37 36 38 39 38 38 38 38 37 37 41 41 39 40 43 46 42 42 41 37 31 27 35 43 43 44 42 39 nan nan nan nan nan nan nan nan nan nan nan nan nan nan nan nan nan nan nan nan nan nan nan nan nan nan nan nan nan nan nan nan nan nan nan nan nan nan nan nan
39 38 37 36 35 35 34 34 34 34 33 34 34 34 32 31 31 32 33 34 36 37 37 41 42 40 40 41 43 43 43 43 44 45 44 43 39 35 34 42 46 45 46 43 41 nan nan nan nan nan nan nan nan nan nan nan nan nan nan nan nan nan nan nan nan nan nan nan nan nan nan nan nan nan nan nan nan nan nan nan nan nan nan nan nan
39 38 38 37 37 35 34 34 34 33 36 36 35 32 32 31 29 29 30 31 32 33 35 36 37 38 39 42 44 45 45 46 46 43 45 44 40 38 39 44 46 50 46 42 nan nan nan nan nan nan nan nan nan nan nan nan nan nan nan nan nan nan nan nan nan nan nan nan nan nan nan nan nan nan nan nan nan nan nan nan nan nan nan nan nan
39 38 37 37 35 35 36 38 36 35 38 38 35 32 33 31 28 29 29 30 30 31 31 32 33 35 37 39 43 45 47 49 47 45 43 41 39 39 44 46 45 46 44 41 35 nan nan nan nan nan nan nan nan nan nan nan nan nan nan nan nan nan nan nan nan nan nan nan nan nan nan nan nan nan nan nan nan nan nan nan nan nan nan nan nan
38 37 37 38 37 35 37 38 42 43 45 44 40 37 33 32 31 33 33 32 32 31 31 33 35 35 36 38 42 45 47 50 49 47 44 42 39 42 44 44 45 45 42 39 nan nan nan nan nan nan nan nan nan nan nan nan nan nan nan nan nan nan nan nan nan nan nan nan nan nan nan nan nan nan nan nan nan nan nan nan nan nan nan nan nan
40 37 37 39 39 36 37 46 46 44 43 41 38 36 34 33 31 30 30 31 31 31 31 33 34 34 34 39 44 46 47 48 48 47 45 43 43 45 44 43 43 40 38 nan nan nan nan nan nan nan nan nan nan nan nan nan nan nan nan nan nan nan nan nan nan nan nan nan nan nan nan nan nan nan nan nan nan nan nan nan nan nan nan nan nan
42 39 38 39 39 38 38 42 40 40 41 40 38 37 35 32 29 28 29 31 30 32 31 34 36 36 39 43 44 45 47 45 43 46 44 43 46 46 43 41 39 37 36 38 37 37 nan nan nan nan nan nan nan nan nan nan nan nan nan nan nan nan nan nan nan nan nan nan nan nan nan nan nan nan nan nan nan nan nan nan nan nan nan nan nan
40 39 37 35 37 36 36 38 37 38 38 38 38 36 34 32 31 30 29 28 28 32 33 35 37 40 43 45 46 47 43 42 50 48 43 43 42 41 nan 40 38 37 nan nan nan nan nan nan nan nan nan nan nan nan nan nan nan nan nan nan nan nan nan nan nan nan nan nan nan nan nan nan nan nan nan nan nan nan nan nan nan nan nan nan nan
41 38 35 33 33 33 34 34 34 34 34 34 34 34 34 39 47 46 36 31 34 38 40 40 41 40 45 49 48 48 50 56 53 45 42 36 nan nan 38 37 36 38 43 nan nan nan nan nan nan nan nan nan nan nan nan nan nan nan nan nan nan nan nan nan nan nan nan nan nan nan nan nan nan nan nan nan nan nan nan nan nan nan nan nan nan
39 38 37 35 38 36 34 33 31 30 29 30 31 32 33 34 37 44 46 38 41 46 49 48 45 46 48 52 nan nan 49 52 51 48 42 nan nan 37 39 36 34 37 37 nan nan nan nan nan nan nan nan nan nan nan nan nan nan nan nan nan nan nan nan nan nan nan nan nan nan nan nan nan nan nan nan nan nan nan nan nan nan nan nan nan nan
47 44 42 40 38 38 36 35 33 30 30 32 30 30 31 34 35 38 45 47 48 51 52 52 52 53 53 51 49 nan 51 50 50 45 nan 37 39 38 36 34 32 nan nan 31 29 nan nan nan nan nan nan nan nan nan nan nan nan nan nan nan nan nan nan nan nan nan nan nan nan nan nan nan nan nan nan nan nan nan nan nan nan nan nan nan nan
50 49 46 44 39 38 37 35 33 33 34 32 32 33 34 36 39 41 43 44 49 54 55 53 54 54 53 54 55 nan nan 48 45 nan 38 37 nan 36 36 nan nan nan 32 30 nan nan nan nan nan nan nan nan nan nan nan nan nan nan nan nan nan nan nan nan nan nan nan nan nan nan nan nan nan nan nan nan nan nan nan nan nan nan nan nan nan
53 54 51 45 40 39 38 37 35 34 34 34 34 34 36 38 42 44 43 45 49 51 50 49 47 52 52 52 55 nan nan nan 42 39 38 nan nan 37 37 nan nan nan nan nan nan nan nan nan nan nan nan nan nan nan nan nan nan nan nan nan nan nan nan nan nan nan nan nan nan nan nan nan nan nan nan nan nan nan nan nan nan nan nan nan nan
nan nan nan nan nan 42 41 39 38 37 37 37 38 38 41 46 47 47 48 50 52 nan nan 50 48 45 49 51 50 nan nan 41 36 35 37 39 38 37 30 28 30 nan nan nan nan nan nan nan nan nan nan nan nan nan nan nan nan nan nan nan nan nan nan nan nan nan nan nan nan nan nan nan nan nan nan nan nan nan nan nan nan nan nan nan nan
nan nan nan nan nan nan nan nan nan nan 42 44 45 45 48 49 49 51 51 51 nan nan nan nan 49 47 46 45 44 41 nan nan nan 39 nan 39 36 30 27 29 30 nan nan nan nan nan nan nan nan nan nan nan nan nan nan nan nan nan nan nan nan nan nan nan nan nan nan nan nan nan nan nan nan nan nan nan nan nan nan nan nan nan nan nan nan
nan nan nan nan nan nan nan nan nan nan nan nan 45 46 47 47 48 nan nan nan nan nan nan nan nan nan nan nan nan nan nan nan nan nan 39 37 33 28 29 31 32 nan nan nan nan nan nan nan nan nan nan nan nan nan nan nan nan nan nan nan nan nan nan nan nan nan nan nan nan nan nan nan nan nan nan nan nan nan nan nan nan nan nan nan nan
nan nan nan nan nan nan nan nan nan nan nan nan nan nan nan nan nan nan nan nan nan nan nan nan nan nan 41 nan nan nan nan nan 37 36 35 34 33 31 31 33 nan 33 nan nan nan nan nan nan nan nan nan nan nan nan nan nan nan nan nan nan nan nan nan nan nan nan nan nan nan nan nan nan nan nan nan nan nan nan nan nan nan nan nan nan nan
nan nan nan nan nan nan nan nan nan nan nan nan 40 39 nan nan nan nan nan nan nan nan nan nan nan nan nan nan nan nan nan 34 33 35 36 36 33 32 32 nan nan nan nan nan nan nan nan nan nan nan nan nan nan nan nan nan nan nan nan nan nan nan nan nan nan nan nan nan nan nan nan nan nan nan nan nan nan nan nan nan nan nan nan nan nan
nan nan nan nan nan nan nan nan nan nan nan nan nan 36 34 nan nan nan nan nan nan nan nan nan nan nan nan nan nan nan nan nan 35 36 35 34 34 33 31 33 36 37 nan nan nan nan nan nan nan nan nan nan nan nan nan nan nan nan nan nan nan nan nan nan nan nan nan nan nan nan nan nan nan nan nan nan nan nan nan nan nan nan nan nan nan
nan nan nan nan nan nan nan nan nan nan nan nan nan nan nan nan nan nan nan nan nan nan nan nan nan nan nan nan nan nan nan nan nan nan nan nan 38 nan nan nan nan nan nan nan nan nan nan nan nan nan nan nan nan nan nan nan nan nan nan nan nan nan nan nan nan nan nan nan nan nan nan nan nan nan nan nan nan nan nan nan nan nan nan nan nan
nan nan nan nan nan nan nan nan nan nan nan nan nan nan nan nan nan nan nan nan nan nan nan nan nan nan nan nan nan nan nan nan nan nan nan nan nan 37 38 38 nan nan nan nan nan nan nan nan nan nan nan nan nan nan nan nan nan nan nan nan nan nan nan nan nan nan nan nan nan nan nan nan nan nan nan nan nan nan nan nan nan nan nan nan nan
nan nan nan nan nan nan nan nan nan nan nan nan nan nan nan nan nan nan nan nan nan nan nan nan nan nan nan nan nan nan nan nan nan nan nan nan nan nan nan nan nan nan nan nan nan nan nan nan nan nan nan nan nan nan nan nan nan nan nan nan nan nan nan nan nan nan nan nan nan nan nan nan nan nan nan nan nan nan nan nan nan nan nan nan nan
nan nan nan nan nan nan nan nan nan nan nan nan nan nan nan nan nan nan nan nan nan nan nan nan nan nan nan nan nan nan nan nan nan nan nan nan nan nan nan nan nan nan nan nan nan nan nan nan nan nan nan nan nan nan nan nan nan nan nan nan nan nan nan nan nan nan nan nan nan nan nan nan nan nan nan nan nan nan nan nan nan nan nan nan nan
nan nan nan nan nan nan nan nan nan nan nan nan nan nan nan nan nan nan nan nan nan nan nan nan nan nan nan nan nan nan nan nan nan nan nan nan nan nan nan nan nan nan nan nan nan nan nan nan nan nan nan nan nan nan nan nan nan nan nan nan nan nan nan nan nan nan nan nan nan nan nan nan nan nan nan nan nan nan nan nan nan nan nan nan nan
nan nan nan nan nan nan nan nan nan nan nan nan nan nan nan nan nan nan nan nan nan nan nan nan nan nan nan nan nan nan nan nan nan nan nan nan nan nan nan nan nan nan nan nan nan nan nan nan nan nan nan nan nan nan nan nan nan nan nan nan nan nan nan nan nan nan nan nan nan nan nan nan nan nan nan nan nan nan nan nan nan nan nan nan nan
nan nan nan nan nan nan nan nan nan nan nan nan nan nan nan nan nan nan nan nan nan nan nan nan nan nan nan nan nan nan nan nan nan nan nan nan nan nan nan nan nan nan nan nan nan nan nan nan nan nan nan nan nan nan nan nan nan nan nan nan nan nan nan nan nan nan nan nan nan nan nan nan nan nan nan nan nan nan nan nan nan nan nan nan nan
nan nan nan nan nan nan nan nan nan nan nan nan nan nan nan nan nan nan nan nan nan nan nan nan nan nan nan nan nan nan nan nan nan nan nan nan nan nan nan nan nan nan nan nan nan nan nan nan nan nan nan nan nan nan nan nan nan nan nan nan nan nan nan nan nan nan nan nan nan nan nan nan nan nan nan nan nan nan nan nan nan nan nan nan nan
nan nan nan nan nan nan nan nan nan nan nan nan nan nan nan nan nan nan nan nan nan nan nan nan nan nan nan nan nan nan nan nan nan nan nan nan nan nan nan nan nan nan nan nan nan nan nan nan nan nan nan nan nan nan nan nan nan nan nan nan nan nan nan nan nan nan nan nan nan nan nan nan nan nan nan nan nan nan nan nan nan nan nan nan nan
nan nan nan nan nan nan nan nan nan nan nan nan nan nan nan nan nan nan nan nan nan nan nan nan nan nan nan nan nan nan nan nan nan nan nan nan nan nan nan nan nan nan nan nan nan nan nan nan nan nan nan nan nan nan nan nan nan nan nan nan nan nan nan nan nan nan nan nan nan nan nan nan nan nan nan nan nan nan nan nan nan nan nan nan nan
Wind_Direction
231 236 244 252 262 268 271 272 275 276 285 289 289 294 296 298 299 295 297 302 295 291 292 296 296 295 295 291 290 292 298 297 298 300 304 308 310 314 315 nan nan nan nan nan nan nan nan nan nan nan nan nan nan nan nan nan nan nan nan nan nan nan nan nan nan nan nan nan nan nan nan nan nan nan nan nan nan nan nan nan nan nan nan nan nan
231 239 245 254 266 260 261 262 269 275 286 286 290 294 295 299 301 300 298 294 290 289 293 293 293 295 294 293 292 294 300 299 299 302 306 309 311 306 310 nan nan nan nan nan nan nan nan nan nan nan nan nan nan nan nan nan nan nan nan nan nan nan nan nan nan nan nan nan nan nan nan nan nan nan nan nan nan nan nan nan nan nan nan nan nan
232 239 244 252 259 254 250 258 271 281 282 285 294 294 295 298 299 302 300 290 287 288 291 293 294 295 294 291 291 294 299 299 299 303 307 310 310 307 nan nan nan nan nan nan nan nan nan nan nan nan nan nan nan nan nan nan nan nan nan nan nan nan nan nan nan nan nan nan nan nan nan nan nan nan nan nan nan nan nan nan nan nan nan nan nan
232 240 246 254 259 257 253 253 269 279 283 287 292 292 293 292 296 300 301 290 289 286 289 292 293 294 292 288 291 291 296 298 299 304 308 308 308 309 nan nan nan nan nan nan nan nan nan nan nan nan nan nan nan nan nan nan nan nan nan nan nan nan nan nan nan nan nan nan nan nan nan nan nan nan nan nan nan nan nan nan nan nan nan nan nan
233 241 248 257 262 264 256 250 263 279 283 283 288 289 290 288 291 300 301 298 292 287 287 290 292 293 287 286 291 292 293 296 299 302 303 302 305 305 nan nan nan nan nan nan nan nan nan nan nan nan nan nan nan nan nan nan nan nan nan nan nan nan nan nan nan nan nan nan nan nan nan nan nan nan nan nan nan nan nan nan nan nan nan nan nan
236 242 249 256 264 269 257 248 259 275 277 279 282 285 286 288 291 296 301 301 295 287 287 287 290 292 288 286 288 291 293 296 299 302 303 301 302 nan nan nan nan nan nan nan nan nan nan nan nan nan nan nan nan nan nan nan nan nan nan nan nan nan nan nan nan nan nan nan nan nan nan nan nan nan nan nan nan nan nan nan nan nan nan nan nan
241 246 251 256 261 264 255 248 254 263 268 272 272 278 284 286 293 299 301 301 297 290 285 288 287 289 287 284 287 292 296 298 298 300 302 302 303 nan nan nan nan nan nan nan nan nan nan nan nan nan nan nan nan nan nan nan nan nan nan nan nan nan nan nan nan nan nan nan nan nan nan nan nan nan nan nan nan nan nan nan nan nan nan nan nan
246 250 252 254 256 259 253 246 246 256 262 267 270 278 281 284 288 294 299 299 296 291 287 286 285 285 284 281 284 286 294 295 298 299 301 nan nan nan nan nan nan nan nan nan nan nan nan nan nan nan nan nan nan nan nan nan nan nan nan nan nan nan nan nan nan nan nan nan nan nan nan nan nan nan nan nan nan nan nan nan nan nan nan nan nan
248 250 251 253 253 250 246 241 243 251 257 263 270 275 280 280 285 292 296 294 288 288 285 285 285 286 281 278 281 283 288 291 293 296 298 nan nan nan nan nan nan nan nan nan nan nan nan nan nan nan nan nan nan nan nan nan nan nan nan nan nan nan nan nan nan nan nan nan nan nan nan nan nan nan nan nan nan nan nan nan nan nan nan nan nan
247 249 251 252 247 243 242 240 243 247 254 261 270 276 277 285 288 294 297 293 288 285 285 283 284 284 282 278 278 280 284 285 287 296 297 295 nan nan nan nan nan nan nan nan nan nan nan nan nan nan nan nan nan nan nan nan nan nan nan nan nan nan nan nan nan nan nan nan nan nan nan nan nan nan nan nan nan nan nan nan nan nan nan nan nan
246 247 250 247 240 238 241 242 243 246 254 261 263 273 282 280 287 293 291 287 287 285 285 285 282 281 281 278 281 281 282 280 286 292 293 295 nan nan nan nan nan nan nan nan nan nan nan nan nan nan nan nan nan nan nan nan nan nan nan nan nan nan nan nan nan nan nan nan nan nan nan nan nan nan nan nan nan nan nan nan nan nan nan nan nan
245 246 245 241 236 239 241 243 245 247 251 259 266 273 278 283 289 292 289 289 284 282 284 283 280 280 277 278 279 278 280 280 291 292 293 295 nan nan nan nan nan nan nan nan nan nan nan nan nan nan nan nan nan nan nan nan nan nan nan nan nan nan nan nan nan nan nan nan nan nan nan nan nan nan nan nan nan nan nan nan nan nan nan nan nan
242 241 238 235 235 240 244 241 244 247 252 256 262 270 279 285 288 292 289 284 281 282 284 280 277 277 276 278 277 274 270 282 292 294 294 297 nan nan nan nan nan nan nan nan nan nan nan nan nan nan nan nan nan nan nan nan nan nan nan nan nan nan nan nan nan nan nan nan nan nan nan nan nan nan nan nan nan nan nan nan nan nan nan nan nan
237 236 233 232 234 240 246 243 244 248 253 258 265 274 280 286 285 282 277 278 281 280 280 279 275 276 277 275 271 270 270 281 291 296 297 298 297 nan nan nan nan nan nan nan nan nan nan nan nan nan nan nan nan nan nan nan nan nan nan nan nan nan nan nan nan nan nan nan nan nan nan nan nan nan nan nan nan nan nan nan nan nan nan nan nan
234 231 230 231 233 237 242 245 246 249 255 260 265 274 276 278 281 279 278 279 279 278 278 275 273 275 276 272 268 268 266 285 290 294 295 296 297 296 291 nan nan nan nan nan nan nan nan nan nan nan nan nan nan nan nan nan nan nan nan nan nan nan nan nan nan nan nan nan nan nan nan nan nan nan nan nan nan nan nan nan nan nan nan nan nan
234 231 230 233 236 238 241 243 244 250 256 262 267 272 275 272 271 272 273 274 271 270 272 271 272 273 272 269 266 268 264 285 289 293 294 295 297 293 291 291 292 nan nan nan nan nan nan nan nan nan nan nan nan nan nan nan nan nan nan nan nan nan nan nan nan nan nan nan nan nan nan nan nan nan nan nan nan nan nan nan nan nan nan nan nan
235 234 232 233 236 239 240 241 246 253 259 264 266 269 270 264 269 270 272 272 271 273 273 269 269 269 269 269 269 267 265 281 289 293 294 295 293 294 292 291 291 293 294 nan nan nan nan nan nan nan nan nan nan nan nan nan nan nan nan nan nan nan nan nan nan nan nan nan nan nan nan nan nan nan nan nan nan nan nan nan nan nan nan nan nan
234 233 232 235 237 240 242 246 252 258 262 266 268 266 267 266 270 272 276 274 273 274 270 268 269 271 274 274 274 273 268 279 290 292 293 296 297 296 292 293 293 293 293 293 nan nan nan nan nan nan nan nan nan nan nan nan nan nan nan nan nan nan nan nan nan nan nan nan nan nan nan nan nan nan nan nan nan nan nan nan nan nan nan nan nan
232 232 234 239 241 243 246 251 256 261 265 268 269 267 268 269 274 277 280 280 280 277 275 275 273 274 277 280 281 281 272 280 292 292 292 297 295 291 291 292 293 293 292 292 nan nan nan nan nan nan nan nan nan nan nan nan nan nan nan nan nan nan nan nan nan nan nan nan nan nan nan nan nan nan nan nan nan nan nan nan nan nan nan nan nan
231 233 235 238 241 242 245 252 257 263 266 266 266 268 270 275 282 284 286 284 284 286 285 283 282 280 278 279 275 281 274 273 285 290 292 296 300 290 290 292 294 295 294 292 nan nan nan nan nan nan nan nan nan nan nan nan nan nan nan nan nan nan nan nan nan nan nan nan nan nan nan nan nan nan nan nan nan nan nan nan nan nan nan nan nan
230 235 237 237 238 243 247 253 259 262 263 266 264 270 275 284 283 280 283 283 283 285 288 285 283 281 275 278 279 282 275 278 283 289 291 296 302 296 291 294 296 297 298 295 nan nan nan nan nan nan nan nan nan nan nan nan nan nan nan nan nan nan nan nan nan nan nan nan nan nan nan nan nan nan nan nan nan nan nan nan nan nan nan nan nan
233 236 237 239 243 247 252 255 260 260 261 268 276 279 282 281 278 280 279 281 282 281 280 280 279 279 273 273 272 276 275 280 282 292 296 297 303 301 287 294 296 299 298 296 295 nan nan nan nan nan nan nan nan nan nan nan nan nan nan nan nan nan nan nan nan nan nan nan nan nan nan nan nan nan nan nan nan nan nan nan nan nan nan nan nan
232 233 235 240 246 250 253 258 260 261 270 282 286 290 290 285 278 278 283 284 285 286 284 279 276 276 277 276 276 278 275 276 285 287 294 296 301 301 288 286 288 295 296 293 292 nan nan nan nan nan nan nan nan nan nan nan nan nan nan nan nan nan nan nan nan nan nan nan nan nan nan nan nan nan nan nan nan nan nan nan nan nan nan nan nan
227 230 234 241 248 253 257 260 263 266 275 281 286 288 288 287 283 282 285 290 290 289 286 277 274 276 279 280 279 276 273 272 280 288 288 295 297 299 287 286 290 290 290 285 284 nan nan nan nan nan nan nan nan nan nan nan nan nan nan nan nan nan nan nan nan nan nan nan nan nan nan nan nan nan nan nan nan nan nan nan nan nan nan nan nan
224 229 235 240 246 252 255 259 259 263 268 278 282 281 278 276 277 280 281 286 287 287 284 284 280 278 276 279 277 274 271 269 271 280 289 292 297 297 288 287 288 286 287 285 nan nan nan nan nan nan nan nan nan nan nan nan nan nan nan nan nan nan nan nan nan nan nan nan nan nan nan nan nan nan nan nan nan nan nan nan nan nan nan nan nan
226 231 236 241 248 254 254 254 256 260 266 273 276 274 267 268 271 271 274 277 278 281 282 283 284 281 276 276 274 272 270 268 267 269 274 283 287 291 285 286 287 286 285 284 289 nan nan nan nan nan nan nan nan nan nan nan nan nan nan nan nan nan nan nan nan nan nan nan nan nan nan nan nan nan nan nan nan nan nan nan nan nan nan nan nan
228 231 236 238 241 248 253 251 250 255 259 262 264 264 266 266 265 265 269 271 273 278 281 283 282 283 280 280 276 273 271 269 268 268 270 275 279 280 279 279 284 283 283 287 nan nan nan nan nan nan nan nan nan nan nan nan nan nan nan nan nan nan nan nan nan nan nan nan nan nan nan nan nan nan nan nan nan nan nan nan nan nan nan nan nan
229 229 231 237 241 245 248 251 256 258 263 266 266 267 270 270 272 274 276 279 281 281 281 279 279 279 282 279 275 273 271 270 269 270 270 273 276 277 278 279 282 284 285 nan nan nan nan nan nan nan nan nan nan nan nan nan nan nan nan nan nan nan nan nan nan nan nan nan nan nan nan nan nan nan nan nan nan nan nan nan nan nan nan nan nan
231 233 234 237 243 248 253 255 261 264 267 267 268 267 270 270 271 274 279 277 280 280 280 275 275 277 277 277 281 281 275 273 273 272 275 278 276 275 276 279 282 283 284 284 282 279 nan nan nan nan nan nan nan nan nan nan nan nan nan nan nan nan nan nan nan nan nan nan nan nan nan nan nan nan nan nan nan nan nan nan nan nan nan nan nan
234 234 235 239 246 252 255 259 263 266 268 269 270 267 257 261 267 275 277 275 269 261 262 274 280 280 279 280 283 283 281 278 276 278 273 276 277 278 nan 279 281 281 nan nan nan nan nan nan nan nan nan nan nan nan nan nan nan nan nan nan nan nan nan nan nan nan nan nan nan nan nan nan nan nan nan nan nan nan nan nan nan nan nan nan nan
234 236 237 240 247 257 261 262 265 268 269 268 267 265 260 250 243 242 240 263 268 270 270 266 267 268 276 278 278 277 275 279 283 281 280 281 nan nan 280 280 279 278 280 nan nan nan nan nan nan nan nan nan nan nan nan nan nan nan nan nan nan nan nan nan nan nan nan nan nan nan nan nan nan nan nan nan nan nan nan nan nan nan nan nan nan
242 243 244 249 252 255 258 261 262 263 260 259 262 261 260 260 253 242 239 257 270 271 275 277 277 276 275 272 nan nan 274 283 283 283 281 nan nan 284 285 281 275 277 287 nan nan nan nan nan nan nan nan nan nan nan nan nan nan nan nan nan nan nan nan nan nan nan nan nan nan nan nan nan nan nan nan nan nan nan nan nan nan nan nan nan nan
241 241 246 251 256 261 261 258 254 254 255 256 257 260 260 258 259 255 247 247 261 270 274 273 276 276 274 276 279 nan 273 277 280 279 nan 282 282 282 276 270 272 nan nan 282 282 nan nan nan nan nan nan nan nan nan nan nan nan nan nan nan nan nan nan nan nan nan nan nan nan nan nan nan nan nan nan nan nan nan nan nan nan nan nan nan nan
244 246 248 250 251 255 255 251 251 253 253 252 252 255 255 257 260 262 263 263 260 257 259 270 279 279 276 275 274 nan nan 274 272 nan 280 283 nan 271 264 nan nan nan 286 282 nan nan nan nan nan nan nan nan nan nan nan nan nan nan nan nan nan nan nan nan nan nan nan nan nan nan nan nan nan nan nan nan nan nan nan nan nan nan nan nan nan
245 253 255 250 250 248 246 244 246 249 252 253 256 258 259 260 261 266 268 268 267 269 270 266 271 277 273 272 273 nan nan nan 272 270 273 nan nan 267 263 nan nan nan nan nan nan nan nan nan nan nan nan nan nan nan nan nan nan nan nan nan nan nan nan nan nan nan nan nan nan nan nan nan nan nan nan nan nan nan nan nan nan nan nan nan nan
nan nan nan nan nan 243 242 244 247 251 253 255 257 259 259 260 262 264 264 267 269 nan nan 271 268 265 271 272 272 nan nan 265 265 264 265 267 270 274 269 268 266 nan nan nan nan nan nan nan nan nan nan nan nan nan nan nan nan nan nan nan nan nan nan nan nan nan nan nan nan nan nan nan nan nan nan nan nan nan nan nan nan nan nan nan nan
nan nan nan nan nan nan nan nan nan nan 250 251 256 258 259 261 264 265 266 269 nan nan nan nan 266 262 261 260 260 255 nan nan nan 259 nan 267 275 272 266 269 270 nan nan nan nan nan nan nan nan nan nan nan nan nan nan nan nan nan nan nan nan nan nan nan nan nan nan nan nan nan nan nan nan nan nan nan nan nan nan nan nan nan nan nan nan
nan nan nan nan nan nan nan nan nan nan nan nan 256 259 261 264 266 nan nan nan nan nan nan nan nan nan nan nan nan nan nan nan nan nan 252 258 260 260 261 263 268 nan nan nan nan nan nan nan nan nan nan nan nan nan nan nan nan nan nan nan nan nan nan nan nan nan nan nan nan nan nan nan nan nan nan nan nan nan nan nan nan nan nan nan nan
nan nan nan nan nan nan nan nan nan nan nan nan nan nan nan nan nan nan nan nan nan nan nan nan nan nan 263 nan nan nan nan nan 256 252 253 253 256 258 259 263 nan 270 nan nan nan nan nan nan nan nan nan nan nan nan nan nan nan nan nan nan nan nan nan nan nan nan nan nan nan nan nan nan nan nan nan nan nan nan nan nan nan nan nan nan nan
nan nan nan nan nan nan nan nan nan nan nan nan 254 258 nan nan nan nan nan nan nan nan nan nan nan nan nan nan nan nan nan 253 252 252 249 250 254 257 260 nan nan nan nan nan nan nan nan nan nan nan nan nan nan nan nan nan nan nan nan nan nan nan nan nan nan nan nan nan nan nan nan nan nan nan nan nan nan nan nan nan nan nan nan nan nan
nan nan nan nan nan nan nan nan nan nan nan nan nan 257 257 nan nan nan nan nan nan nan nan nan nan nan nan nan nan nan nan nan 250 250 252 253 255 256 260 263 267 270 nan nan nan nan nan nan nan nan nan nan nan nan nan nan nan nan nan nan nan nan nan nan nan nan nan nan nan nan nan nan nan nan nan nan nan nan nan nan nan nan nan nan nan
nan nan nan nan nan nan nan nan nan nan nan nan nan nan nan nan nan nan nan nan nan nan nan nan nan nan nan nan nan nan nan nan nan nan nan nan 252 nan nan nan nan nan nan nan nan nan nan nan nan nan nan nan nan nan nan nan nan nan nan nan nan nan nan nan nan nan nan nan nan nan nan nan nan nan nan nan nan nan nan nan nan nan nan nan nan
nan nan nan nan nan nan nan nan nan nan nan nan nan nan nan nan nan nan nan nan nan nan nan nan nan nan nan nan nan nan nan nan nan nan nan nan nan 252 254 258 nan nan nan nan nan nan nan nan nan nan nan nan nan nan nan nan nan nan nan nan nan nan nan nan nan nan nan nan nan nan nan nan nan nan nan nan nan nan nan nan nan nan nan nan nan
nan nan nan nan nan nan nan nan nan nan nan nan nan nan nan nan nan nan nan nan nan nan nan nan nan nan nan nan nan nan nan nan nan nan nan nan nan nan nan nan nan nan nan nan nan nan nan nan nan nan nan nan nan nan nan nan nan nan nan nan nan nan nan nan nan nan nan nan nan nan nan nan nan nan nan nan nan nan nan nan nan nan nan nan nan
nan nan nan nan nan nan nan nan nan nan nan nan nan nan nan nan nan nan nan nan nan nan nan nan nan nan nan nan nan nan nan nan nan nan nan nan nan nan nan nan nan nan nan nan nan nan nan nan nan nan nan nan nan nan nan nan nan nan nan nan nan nan nan nan nan nan nan nan nan nan nan nan nan nan nan nan nan nan nan nan nan nan nan nan nan
nan nan nan nan nan nan nan nan nan nan nan nan nan nan nan nan nan nan nan nan nan nan nan nan nan nan nan nan nan nan nan nan nan nan nan nan nan nan nan nan nan nan nan nan nan nan nan nan nan nan nan nan nan nan nan nan nan nan nan nan nan nan nan nan nan nan nan nan nan nan nan nan nan nan nan nan nan nan nan nan nan nan nan nan nan
nan nan nan nan nan nan nan nan nan nan nan nan nan nan nan nan nan nan nan nan nan nan nan nan nan nan nan nan nan nan nan nan nan nan nan nan nan nan nan nan nan nan nan nan nan nan nan nan nan nan nan nan nan nan nan nan nan nan nan nan nan nan nan nan nan nan nan nan nan nan nan nan nan nan nan nan nan nan nan nan nan nan nan nan nan
nan nan nan nan nan nan nan nan nan nan nan nan nan nan nan nan nan nan nan nan nan nan nan nan nan nan nan nan nan nan nan nan nan nan nan nan nan nan nan nan nan nan nan nan nan nan nan nan nan nan nan nan nan nan nan nan nan nan nan nan nan nan nan nan nan nan nan nan nan nan nan nan nan nan nan nan nan nan nan nan nan nan nan nan nan
nan nan nan nan nan nan nan nan nan nan nan nan nan nan nan nan nan nan nan nan nan nan nan nan nan nan nan nan nan nan nan nan nan nan nan nan nan nan nan nan nan nan nan nan nan nan nan nan nan nan nan nan nan nan nan nan nan nan nan nan nan nan nan nan nan nan nan nan nan nan nan nan nan nan nan nan nan nan nan nan nan nan nan nan nan
nan nan nan nan nan nan nan nan nan nan nan nan nan nan nan nan nan nan nan nan nan nan nan nan nan nan nan nan nan nan nan nan nan nan nan nan nan nan nan nan nan nan nan nan nan nan nan nan nan nan nan nan nan nan nan nan nan nan nan nan nan nan nan nan nan nan nan nan nan nan nan nan nan nan nan nan nan nan nan nan nan nan nan nan nan
nan nan nan nan nan nan nan nan nan nan nan nan nan nan nan nan nan nan nan nan nan nan nan nan nan nan nan nan nan nan nan nan nan nan nan nan nan nan nan nan nan nan nan nan nan nan nan nan nan nan nan nan nan nan nan nan nan nan nan nan nan nan nan nan nan nan nan nan nan nan nan nan nan nan nan nan nan nan nan nan nan nan nan nan nan